Weather Service Report


328 
ASUS41 KBTV 050010
RWRBTV
VERMONT REGIONAL WEATHER ROUNDUP
NATIONAL WEATHER SERVICE BURLINGTON VT
700 PM EST SUN DEC 04 2016

NOTE: "FAIR" INDICATES FEW OR NO CLOUDS BELOW 12,000 FEET WITH NO 
SIGNIFICANT WEATHER AND/OR OBSTRUCTIONS TO VISIBILITY.

* THESE REPORTS ARE NOT UNDER NWS QUALITY CONTROL AND/OR DO NOT
  REPORT WEATHER SUCH AS PRECIPITATION AND FOG.

VTZ001>019-050100-
_____VERMONT_____

  
CITY           SKY/WX    TMP DP  RH WIND       PRES   REMARKS
BURLINGTON     MOCLDY    32  22  66 NE5       30.22S WCI  27          
6HR MIN TEMP:  32; 6HR MAX TEMP:  35;                                

MONTPELIER     CLOUDY    24  19  81 CALM      30.20F                  
6HR MIN TEMP:  24; 6HR MAX TEMP:  29;                                

MORRISVILLE    MOCLDY    26  19  74 CALM      30.21                   
6HR MIN TEMP:  26; 6HR MAX TEMP:  32;                                

ST. JOHNSBURY*   N/A     29  19  66 MISG      30.18F                  
6HR MIN TEMP:  28; 6HR MAX TEMP:  33;                                

LYNDONVILLE*   FAIR      24  18  78 NW6       30.18S WCI  17          
6HR MIN TEMP:  24; 6HR MAX TEMP:  29;                                

MIDDLEBURY*    FAIR      26  20  79 CALM      30.21R                  
6HR MIN TEMP:  26; 6HR MAX TEMP:  34;                                

RUTLAND*       CLEAR     23  20  88 CALM      30.20S                  
6HR MIN TEMP:  22; 6HR MAX TEMP:  34;                                

SPRINGFIELD    CLEAR     26  18  71 CALM      30.21R                  
6HR MIN TEMP:  25; 6HR MAX TEMP:  35;                                

HIGHGATE*      FAIR      24  22  91 E3        30.22F                  
6HR MIN TEMP:  24; 6HR MAX TEMP:  33;                                

NEWPORT*       FAIR      19  17  89 CALM      30.19S                  
6HR MIN TEMP:  19; 6HR MAX TEMP:  28;                                

BENNINGTON     CLEAR     23  18  81 SE5       30.19S WCI  17          
6HR MIN TEMP:  23; 6HR MAX TEMP:  33;                                

SUTTON*          N/A     19 N/A N/A MISG        N/A                   

_____LAKE CHAMPLAIN_____

  
CITY           SKY/WX    TMP DP  RH WIND       PRES   REMARKS
BURTON ISLAND*   N/A     32  25  74 NE1         N/A                   
COLCHESTER RF*   N/A     34  27  75 N6          N/A  WCI  29          
DIAMOND ISL*     N/A     34  25  69 NW2         N/A                   

$$

NYZ007-026>031-035-052-083-087-050100-
_____NORTHERN NEW YORK_____

  
CITY           SKY/WX    TMP DP  RH WIND       PRES   REMARKS
PLATTSBURGH    PTCLDY    28  20  71 W5        30.23S WCI  23          
6HR MIN TEMP:  28; 6HR MAX TEMP:  35;                                

SARANAC LAKE   CLOUDY    21  17  84 VRB3      30.13F                  
6HR MIN TEMP:  21; 6HR MAX TEMP:  25;                                

MASSENA        CLEAR     23  18  81 CALM      30.22F                  
6HR MIN TEMP:  23; 6HR MAX TEMP:  33;                                

OGDENSBURG*    PTCLDY    27  21  80 CALM      30.20F                  
6HR MIN TEMP:  26; 6HR MAX TEMP:  32;                                

POTSDAM*       MOCLDY    27  25  93 SE3       30.20F                  
WATERTOWN      PTCLDY    22  18  85 NE7       30.17F WCI  13          
6HR MIN TEMP:  22; 6HR MAX TEMP:  34;                                

FT DRUM        PTCLDY    24  19  81 E7        30.15F WCI  16          
6HR MIN TEMP:  24; 6HR MAX TEMP:  31;                                

ALBANY         CLOUDY    27  20  75 CALM      30.22F                  
6HR MIN TEMP:  26; 6HR MAX TEMP:  36;                                

GLENS FALLS    CLEAR     26  19  74 CALM      30.22S                  
6HR MIN TEMP:  25; 6HR MAX TEMP:  37;                                


$$
NHZ002-005-011-050100-
_____NEW HAMPSHIRE_____

  
CITY           SKY/WX    TMP DP  RH WIND       PRES   REMARKS
LEBANON        CLEAR     28  20  71 CALM      30.19S                  
6HR MIN TEMP:  28; 6HR MAX TEMP:  38;                                

KEENE          CLEAR     27  20  75 S3        30.20R                  
6HR MIN TEMP:  27; 6HR MAX TEMP:  37;                                

MT WASHINGTON  PTCLDY    12  -9  37 N24         N/A  WCI  -8          
6HR MIN TEMP:   8; 6HR MAX TEMP:  13;                                

PLYMOUTH         N/A     28  20  72 CALM      30.19R                  
6HR MIN TEMP:  27; 6HR MAX TEMP:  35;                                

WHITEFIELD     MOCLDY    25  17  72 CALM      30.17F                  
6HR MIN TEMP:  25; 6HR MAX TEMP:  31;                                


$$

_____REGIONAL QUEBEC LOCATIONS_____

  
CITY           SKY/WX    TMP DP  RH WIND       PRES   REMARKS
MONTREAL       PTCLDY    28  21  74 W3        30.22F                  
QUEBEC CITY    CLEAR     21  12  68 NW6       30.20F WCI  14          
SHERBROOKE     CLEAR     19  18  93 SE2       30.19F                  

_____REGIONAL ONTARIO LOCATIONS_____

  
CITY           SKY/WX    TMP DP  RH WIND       PRES   REMARKS
OTTAWA         PTCLDY    23  18  80 SE6       30.18F WCI  16          

______KEY______
VSB  - VISIBILITY IN MILES
WCI  - WIND CHILL INDEX
HX   - HEAT INDEX
$$
NNNN
  

Return to Home page


Western Regional Climate Center, wrcc@dri.edu